• In Deutschland
  • Länderverzeichnis
  • Für 7 Tage
  • Wassertemperatur
  • Satellitenkarten
  • Wetterkarte
  • Widgets
  • user-avatar
    Anmelden

    Stündliche Wetter Bogorodskoe

    Heute, 25 September, Dienstag

    Zeit Temperatur Niederschläge Wind Luftdruck Luftfeuchtigkeit
    00:00 +18°C° 0 mm 3 m/S 750 mmHg 47%
    01:00 +18°C° 0 mm 4 m/S 750 mmHg 50%
    02:00 +18°C° 0 mm 4 m/S 749 mmHg 53%
    03:00 +17°C° 0 mm 3 m/S 749 mmHg 60%
    04:00 +17°C° 0 mm 4 m/S 749 mmHg 61%
    05:00 +17°C° 0 mm 4 m/S 749 mmHg 62%
    06:00 +17°C° 0 mm 4 m/S 749 mmHg 63%
    07:00 +19°C° 0 mm 5 m/S 748 mmHg 59%
    08:00 +21°C° 0 mm 6 m/S 748 mmHg 55%
    09:00 +23°C° 0 mm 7 m/S 748 mmHg 50%
    10:00 +26°C° 0 mm 7 m/S 748 mmHg 46%
    11:00 +27°C° 0 mm 6 m/S 748 mmHg 43%
    12:00 +29°C° 0 mm 6 m/S 748 mmHg 40%
    13:00 +30°C° 0 mm 5 m/S 748 mmHg 38%
    14:00 +30°C° 0 mm 5 m/S 748 mmHg 35%
    15:00 +30°C° 0 mm 4 m/S 748 mmHg 36%
    16:00 +28°C° 0 mm 5 m/S 748 mmHg 44%
    17:00 +26°C° 0 mm 6 m/S 749 mmHg 52%
    18:00 +23°C° 0 mm 7 m/S 749 mmHg 60%
    19:00 +21°C° 0.5 mm 6 m/S 750 mmHg 63%
    20:00 +19°C° 0.5 mm 6 m/S 751 mmHg 66%
    21:00 +16°C° 0.5 mm 6 m/S 751 mmHg 69%
    22:00 +16°C° 1 mm 5 m/S 752 mmHg 69%
    23:00 +15°C° 1 mm 5 m/S 752 mmHg 69%

    Morgen, 26 September, Mittwoch

    Zeit Temperatur Niederschläge Wind Luftdruck Luftfeuchtigkeit
    00:00 +14°C° 1 mm 5 m/S 753 mmHg 69%
    01:00 +14°C° 0.5 mm 5 m/S 753 mmHg 69%
    02:00 +14°C° 0.5 mm 4 m/S 754 mmHg 68%
    03:00 +13°C° 0.5 mm 4 m/S 754 mmHg 67%
    04:00 +13°C° 0.2 mm 4 m/S 754 mmHg 68%
    05:00 +13°C° 0.2 mm 4 m/S 754 mmHg 68%
    06:00 +13°C° 0.2 mm 4 m/S 755 mmHg 69%
    07:00 +13°C° 0.2 mm 4 m/S 755 mmHg 70%
    08:00 +12°C° 0.2 mm 4 m/S 756 mmHg 72%
    09:00 +12°C° 0.2 mm 3 m/S 756 mmHg 73%
    10:00 +13°C° 0.5 mm 3 m/S 756 mmHg 71%
    11:00 +13°C° 0.5 mm 3 m/S 757 mmHg 69%
    12:00 +14°C° 0.5 mm 2 m/S 757 mmHg 67%
    13:00 +15°C° 0 mm 2 m/S 757 mmHg 63%
    14:00 +16°C° 0 mm 2 m/S 757 mmHg 59%
    15:00 +16°C° 0 mm 2 m/S 757 mmHg 55%
    16:00 +16°C° 0 mm 2 m/S 757 mmHg 56%
    17:00 +16°C° 0 mm 2 m/S 757 mmHg 58%
    18:00 +15°C° 0 mm 2 m/S 757 mmHg 60%
    19:00 +15°C° 0 mm 2 m/S 758 mmHg 64%
    20:00 +13°C° 0 mm 3 m/S 758 mmHg 67%
    21:00 +13°C° 0 mm 3 m/S 758 mmHg 71%
    22:00 +14°C° 0 mm 2 m/S 758 mmHg 70%
    23:00 +13°C° 0 mm 2 m/S 759 mmHg 69%

    übermorgen, 27 September, Donnerstag

    Zeit Temperatur Niederschläge Wind Luftdruck Luftfeuchtigkeit
    00:00 +13°C° 0 mm 2 m/S 759 mmHg 68%
    01:00 +13°C° 0 mm 2 m/S 759 mmHg 67%
    02:00 +12°C° 0 mm 2 m/S 759 mmHg 66%
    03:00 +12°C° 0 mm 2 m/S 759 mmHg 66%
    04:00 +10°C° 0 mm 2 m/S 759 mmHg 67%
    05:00 +10°C° 0 mm 2 m/S 759 mmHg 68%
    06:00 +10°C° 0 mm 2 m/S 759 mmHg 68%
    07:00 +12°C° 0 mm 1 m/S 759 mmHg 62%
    08:00 +14°C° 0 mm 1 m/S 760 mmHg 56%
    09:00 +15°C° 0 mm 1 m/S 760 mmHg 50%
    10:00 +16°C° 0 mm 2 m/S 759 mmHg 45%
    11:00 +17°C° 0 mm 2 m/S 759 mmHg 39%
    12:00 +19°C° 0 mm 3 m/S 759 mmHg 34%
    13:00 +19°C° 0 mm 3 m/S 758 mmHg 33%
    14:00 +19°C° 0 mm 4 m/S 758 mmHg 32%
    15:00 +20°C° 0 mm 4 m/S 757 mmHg 31%
    16:00 +19°C° 0 mm 4 m/S 757 mmHg 34%
    17:00 +18°C° 0 mm 3 m/S 757 mmHg 36%
    18:00 +17°C° 0 mm 3 m/S 757 mmHg 39%
    19:00 +17°C° 0 mm 3 m/S 757 mmHg 39%
    20:00 +16°C° 0 mm 3 m/S 757 mmHg 40%
    21:00 +14°C° 0 mm 3 m/S 758 mmHg 40%
    22:00 +13°C° 0 mm 3 m/S 757 mmHg 40%
    23:00 +13°C° 0 mm 3 m/S 757 mmHg 39%

    28 September, Freitag

    Zeit Temperatur Niederschläge Wind Luftdruck Luftfeuchtigkeit
    00:00 +12°C° 0 mm 3 m/S 757 mmHg 39%
    01:00 +12°C° 0 mm 3 m/S 757 mmHg 40%
    02:00 +11°C° 0 mm 3 m/S 757 mmHg 42%
    03:00 +11°C° 0 mm 3 m/S 757 mmHg 43%
    04:00 +10°C° 0 mm 3 m/S 757 mmHg 45%
    05:00 +10°C° 0 mm 3 m/S 757 mmHg 47%
    06:00 +10°C° 0 mm 3 m/S 757 mmHg 49%
    07:00 +11°C° 0 mm 3 m/S 757 mmHg 45%
    08:00 +13°C° 0 mm 3 m/S 757 mmHg 42%
    09:00 +14°C° 0 mm 3 m/S 758 mmHg 38%
    10:00 +17°C° 0 mm 3 m/S 757 mmHg 34%
    11:00 +18°C° 0 mm 3 m/S 757 mmHg 31%
    12:00 +19°C° 0 mm 3 m/S 757 mmHg 27%
    13:00 +20°C° 0 mm 3 m/S 756 mmHg 26%
    14:00 +21°C° 0 mm 3 m/S 756 mmHg 26%
    15:00 +21°C° 0 mm 3 m/S 755 mmHg 26%
    16:00 +20°C° 0 mm 3 m/S 755 mmHg 29%
    17:00 +19°C° 0 mm 2 m/S 755 mmHg 33%
    18:00 +19°C° 0 mm 1 m/S 754 mmHg 36%
    19:00 +18°C° 0 mm 2 m/S 754 mmHg 38%
    20:00 +17°C° 0 mm 2 m/S 754 mmHg 40%
    21:00 +17°C° 0 mm 2 m/S 754 mmHg 41%
    22:00 +17°C° 0 mm 2 m/S 754 mmHg 45%
    23:00 +17°C° 0 mm 2 m/S 754 mmHg 48%

    29 September, Samstag

    Zeit Temperatur Niederschläge Wind Luftdruck Luftfeuchtigkeit
    00:00 +16°C° 0 mm 2 m/S 754 mmHg 51%
    01:00 +16°C° 0 mm 2 m/S 754 mmHg 57%
    02:00 +16°C° 0 mm 2 m/S 754 mmHg 63%
    03:00 +15°C° 0 mm 2 m/S 753 mmHg 69%
    04:00 +15°C° 0 mm 2 m/S 753 mmHg 73%
    05:00 +15°C° 0 mm 2 m/S 753 mmHg 77%
    06:00 +15°C° 0 mm 2 m/S 753 mmHg 81%
    07:00 +16°C° 0 mm 3 m/S 753 mmHg 76%
    08:00 +18°C° 0 mm 3 m/S 753 mmHg 70%
    09:00 +20°C° 0 mm 4 m/S 753 mmHg 64%
    10:00 +21°C° 0 mm 4 m/S 753 mmHg 58%
    11:00 +22°C° 0 mm 4 m/S 753 mmHg 53%
    12:00 +25°C° 0 mm 4 m/S 753 mmHg 48%
    13:00 +25°C° 0 mm 4 m/S 752 mmHg 46%
    14:00 +26°C° 0 mm 4 m/S 752 mmHg 44%
    15:00 +27°C° 0 mm 4 m/S 752 mmHg 42%
    16:00 +26°C° 0 mm 3 m/S 752 mmHg 44%
    17:00 +25°C° 0 mm 3 m/S 752 mmHg 46%
    18:00 +24°C° 0 mm 3 m/S 752 mmHg 49%
    19:00 +22°C° 0 mm 3 m/S 752 mmHg 50%
    20:00 +22°C° 0 mm 3 m/S 752 mmHg 51%
    21:00 +21°C° 0 mm 4 m/S 752 mmHg 53%
    22:00 +21°C° 0 mm 3 m/S 752 mmHg 53%
    23:00 +20°C° 0 mm 3 m/S 752 mmHg 53%

    30 September, Sonntag

    Zeit Temperatur Niederschläge Wind Luftdruck Luftfeuchtigkeit
    00:00 +20°C° 0 mm 3 m/S 752 mmHg 54%
    01:00 +20°C° 0 mm 3 m/S 752 mmHg 54%
    02:00 +19°C° 0 mm 2 m/S 752 mmHg 54%
    03:00 +19°C° 0 mm 2 m/S 752 mmHg 53%
    04:00 +18°C° 0 mm 2 m/S 752 mmHg 53%
    05:00 +18°C° 0 mm 2 m/S 752 mmHg 52%
    06:00 +18°C° 0 mm 2 m/S 753 mmHg 52%
    07:00 +19°C° 0 mm 3 m/S 753 mmHg 47%
    08:00 +21°C° 0 mm 3 m/S 753 mmHg 42%
    09:00 +22°C° 0 mm 3 m/S 753 mmHg 38%
    10:00 +24°C° 0 mm 3 m/S 753 mmHg 35%
    11:00 +25°C° 0 mm 4 m/S 753 mmHg 31%
    12:00 +27°C° 0 mm 4 m/S 753 mmHg 28%
    13:00 +27°C° 0 mm 4 m/S 753 mmHg 28%
    14:00 +27°C° 0 mm 5 m/S 753 mmHg 28%
    15:00 +27°C° 0 mm 5 m/S 753 mmHg 27%
    16:00 +26°C° 0 mm 4 m/S 753 mmHg 29%
    17:00 +25°C° 0 mm 4 m/S 753 mmHg 32%
    18:00 +23°C° 0 mm 4 m/S 753 mmHg 34%
    19:00 +22°C° 0 mm 4 m/S 753 mmHg 35%
    20:00 +22°C° 0 mm 4 m/S 754 mmHg 37%
    21:00 +21°C° 0 mm 4 m/S 754 mmHg 38%
    22:00 +20°C° 0 mm 4 m/S 754 mmHg 40%
    23:00 +20°C° 0 mm 5 m/S 754 mmHg 43%
    Mehr zeigen